Theta_e
332 332 333 334 334 335 336 336 337 338 338 339 338 338 338 338 338 338 339 339 338 338 338 338 339 339 338 338 338 338 338 337 336 336 335 335 336 336 336 337 337 338 338 339 339 338 337 337 337 336 336 336 336 335 334 334 334 334 334 335 335 334 334 333 333 332 333 333 333 333 332 331 330 331 332 332 332 332 330 330 332 332 333 332 332
329 329 329 330 331 331 332 333 334 333 334 335 336 336 336 337 338 338 339 339 338 338 338 338 339 339 339 339 338 337 337 336 336 336 335 335 335 336 336 337 337 338 338 338 338 338 337 337 337 337 336 336 336 336 335 335 335 335 335 335 335 335 334 334 333 332 333 333 333 332 332 331 330 330 331 332 332 332 331 331 332 333 332 332 332
327 327 327 327 328 329 329 330 330 330 331 333 334 334 335 335 335 337 338 338 338 337 337 338 338 339 340 339 339 338 337 337 336 335 335 335 335 336 336 336 337 338 338 338 338 338 338 338 338 337 337 336 336 336 337 336 335 335 336 336 335 335 334 334 333 333 332 331 332 332 333 332 332 331 331 333 333 333 334 332 331 332 332 332 332
326 325 325 326 326 326 327 327 328 328 329 330 331 331 332 332 333 334 335 335 335 335 336 337 338 339 339 339 339 338 338 338 337 337 336 334 334 335 336 335 336 337 338 338 338 338 338 338 338 338 337 337 337 337 337 337 336 336 336 336 336 335 334 333 333 334 333 330 330 332 332 332 333 332 331 332 333 333 334 334 332 332 331 332 331
325 324 324 324 324 324 325 325 326 326 327 328 328 329 329 329 330 330 331 331 331 333 333 334 335 336 337 338 338 338 337 337 337 338 338 337 335 334 335 335 335 336 337 337 338 338 338 337 337 338 337 337 337 337 337 336 336 336 336 335 335 335 335 334 334 334 334 332 330 330 331 332 332 331 330 332 332 332 333 334 334 332 331 331 330
324 324 324 324 324 324 324 324 325 325 326 326 326 327 326 327 328 328 328 329 329 330 331 332 333 334 335 336 337 336 336 337 338 338 337 337 336 336 336 336 335 335 335 336 336 336 337 337 336 336 337 336 336 336 336 335 335 335 335 333 332 333 334 333 334 333 334 334 330 330 331 332 331 330 332 333 332 332 332 333 333 332 332 331 330
323 323 323 324 324 323 324 324 324 324 324 325 325 325 325 326 326 326 326 327 328 328 329 330 331 332 333 334 334 335 336 336 336 336 335 335 335 335 336 336 336 336 335 335 336 336 336 336 335 336 336 335 334 334 335 335 335 335 335 332 332 333 332 331 333 333 333 333 331 330 330 331 331 330 333 335 334 332 331 332 333 332 332 331 330
323 323 323 323 323 323 324 323 323 323 323 323 323 324 324 324 325 324 324 325 326 327 328 328 329 330 330 331 332 333 334 334 334 334 335 335 335 335 335 336 336 337 336 336 336 336 336 335 335 335 335 333 333 334 333 333 334 334 334 334 333 333 332 330 331 332 333 333 332 331 330 330 330 330 331 332 334 334 332 332 333 333 333 331 331
322 322 322 323 323 323 323 323 322 322 322 322 322 322 322 322 323 323 323 324 325 325 326 326 327 327 328 328 329 330 330 331 332 332 333 334 334 335 334 335 335 335 336 336 335 335 336 336 335 335 334 333 333 333 333 333 333 333 333 334 333 331 330 330 330 332 333 332 331 331 330 330 329 330 329 328 331 334 333 332 332 333 332 331 331
321 322 322 322 323 323 322 321 321 321 321 321 321 321 321 321 321 322 322 322 323 324 324 325 325 325 326 326 327 327 327 328 328 329 330 331 332 333 333 334 334 334 334 334 334 334 335 335 335 335 335 334 334 333 333 332 332 332 332 333 332 331 330 330 331 332 331 331 331 330 329 329 329 329 329 329 330 332 333 332 331 332 332 331 331
321 321 321 322 322 321 321 320 320 320 320 319 319 320 320 320 320 321 321 321 321 321 322 323 324 324 325 325 325 325 326 326 327 328 328 328 329 329 331 332 333 333 333 333 334 334 334 335 335 335 335 335 335 333 333 332 331 331 331 332 332 332 331 330 330 331 330 330 331 330 329 329 329 329 329 330 330 330 332 333 331 331 331 330 331
321 321 321 321 321 320 320 319 319 319 318 318 318 318 319 319 319 320 320 320 320 320 321 321 322 322 323 324 323 323 324 325 326 327 327 327 327 326 328 329 331 332 332 333 333 333 333 333 334 334 334 334 334 333 333 333 331 329 330 331 331 332 332 331 330 331 331 329 330 331 330 330 330 330 329 330 330 330 331 332 331 331 331 330 330
320 320 321 320 320 319 319 319 318 318 318 318 318 318 318 318 319 319 319 319 319 319 319 319 320 321 320 321 321 322 323 323 324 325 324 324 324 325 326 327 329 330 331 332 333 333 332 333 333 334 334 334 334 333 333 333 332 330 330 330 330 331 331 331 331 333 333 331 330 331 330 330 330 330 330 330 330 329 329 330 331 331 331 331 330
320 320 320 320 319 319 318 318 318 318 318 317 317 318 318 318 318 318 318 318 318 319 318 318 318 318 318 318 319 320 321 321 322 322 321 321 322 324 325 326 326 327 329 330 331 331 332 332 333 333 333 333 334 334 333 333 332 331 331 330 330 330 330 330 331 332 333 332 331 330 329 330 331 331 330 329 329 329 329 329 330 331 330 330 330
318 318 318 318 318 318 317 317 318 318 317 317 318 317 317 318 318 318 317 317 318 318 317 317 317 317 316 317 318 318 319 320 320 319 319 320 321 322 322 323 324 325 326 327 328 330 331 331 332 332 332 333 333 333 332 332 332 332 332 330 329 329 329 330 331 332 332 331 331 330 329 329 330 331 330 330 330 330 330 329 330 330 330 330 330
317 318 318 318 318 318 317 317 317 317 317 317 317 317 317 317 317 317 317 316 317 317 317 316 317 316 316 316 316 317 318 318 318 318 318 319 319 319 320 321 322 323 324 325 326 328 329 330 330 330 331 331 331 332 332 331 331 331 331 330 329 328 329 330 331 331 331 331 331 331 330 329 330 330 330 330 331 330 330 330 330 330 330 330 330
317 318 318 318 317 317 317 317 317 317 316 316 316 316 317 317 316 316 316 316 317 317 317 316 316 315 315 315 315 316 316 316 316 317 317 317 317 317 318 319 321 321 322 323 325 327 328 329 329 329 329 328 329 329 329 329 329 329 330 330 329 328 328 329 329 330 331 331 331 330 329 329 330 330 330 330 331 331 330 331 330 329 329 329 330
317 317 317 316 316 316 316 316 316 316 316 316 316 315 316 316 315 315 315 315 317 317 317 316 315 315 315 315 314 314 314 315 315 316 316 316 315 315 315 317 318 320 321 322 323 324 325 326 326 326 326 325 326 327 327 327 328 328 329 330 330 329 328 328 328 329 330 331 331 330 329 329 330 330 330 330 330 331 331 331 331 330 329 328 328
317 317 317 316 316 316 316 315 315 315 315 315 315 315 315 315 315 315 315 315 316 316 316 315 315 315 314 314 314 314 314 314 314 314 314 314 314 313 313 315 316 318 319 320 320 320 320 322 324 324 324 325 325 326 326 327 326 327 329 329 329 329 328 328 328 328 329 330 330 330 330 330 330 330 330 330 331 331 331 331 331 330 329 328 327
318 318 317 316 315 315 314 314 314 314 314 314 314 314 314 314 314 314 314 314 315 315 315 314 314 314 314 313 314 313 312 313 313 313 313 313 313 311 311 313 314 315 316 318 317 317 318 320 321 322 323 324 326 326 326 327 326 327 328 329 329 329 328 328 328 328 329 329 328 329 330 331 331 330 330 331 332 331 331 331 331 330 330 330 328
318 318 316 315 314 314 313 313 313 313 313 313 313 313 314 314 314 314 314 314 314 314 313 313 314 314 313 313 313 312 312 312 311 312 312 311 311 310 309 310 311 312 313 314 314 315 315 316 317 317 318 320 322 324 325 326 327 327 328 329 329 329 328 328 328 328 328 328 327 328 329 330 331 331 331 331 332 331 330 330 331 331 330 330 330
318 317 315 313 314 313 312 312 312 312 312 312 312 312 313 313 313 313 313 314 313 313 313 312 313 312 312 313 312 312 311 311 310 311 311 310 309 309 308 308 309 310 311 311 312 313 313 314 314 313 313 315 317 319 320 322 324 325 327 328 328 327 327 327 327 327 327 328 328 327 328 328 329 330 331 331 331 331 330 329 330 330 330 330 330
316 315 313 312 312 312 312 311 311 311 311 311 311 311 311 312 313 313 312 313 312 312 312 312 311 311 311 311 311 311 311 310 310 310 310 309 309 308 307 307 307 308 309 309 310 310 311 312 312 311 310 311 313 314 316 318 320 322 324 326 327 326 326 326 327 327 327 327 327 327 327 328 327 328 330 330 330 330 330 330 329 329 329 330 330
314 313 311 311 311 311 311 311 310 310 310 310 310 310 310 311 312 312 312 312 311 311 311 310 310 310 310 310 310 310 310 310 309 309 309 308 308 308 307 306 306 306 306 307 307 308 308 309 310 308 307 308 309 310 312 314 315 318 321 323 325 326 326 326 326 326 327 326 327 327 327 327 327 327 328 329 327 328 329 328 327 328 329 330 330
314 313 311 310 310 310 310 310 310 310 310 309 309 309 309 310 311 311 311 311 310 309 309 309 309 309 309 309 308 308 309 309 308 308 308 307 307 307 307 306 305 305 304 305 305 305 306 306 308 307 305 305 306 307 308 310 311 314 317 320 322 324 325 325 326 326 326 326 327 327 327 327 327 327 328 328 327 326 327 327 327 329 330 330 331
314 314 312 310 310 310 310 310 309 309 309 309 308 308 309 309 310 310 310 310 309 308 308 308 308 308 308 308 308 308 308 308 307 307 307 307 307 307 307 306 305 305 304 304 303 303 304 303 305 305 303 302 303 304 305 306 308 310 313 316 319 321 323 325 326 327 326 326 326 327 328 328 328 328 328 328 327 327 326 326 327 329 331 331 330
314 314 312 311 310 310 310 309 309 308 309 308 308 308 308 308 309 309 309 308 308 308 307 308 308 307 307 308 307 307 307 307 307 307 307 306 306 306 307 306 306 305 304 304 303 303 303 302 302 303 301 300 301 302 302 303 304 307 310 313 316 319 321 324 326 327 327 326 326 326 327 328 328 328 328 328 328 328 327 326 326 327 329 330 330
313 313 312 312 311 309 309 309 309 308 308 308 307 307 307 308 308 308 308 307 307 307 307 307 307 307 307 307 306 306 306 306 306 306 306 306 305 306 306 306 306 306 305 304 303 303 302 302 301 301 300 299 299 300 300 301 302 305 308 311 314 316 319 322 324 326 326 327 327 326 327 327 327 328 328 328 328 328 327 326 327 327 327 328 329
312 311 312 312 310 308 308 308 308 308 308 307 307 307 307 307 308 307 307 307 306 306 307 306 306 306 306 306 305 305 305 305 305 305 305 305 305 305 305 305 305 305 305 304 303 303 302 301 301 301 300 298 297 297 298 299 301 304 307 311 313 315 318 320 322 324 326 327 327 327 327 327 326 327 327 327 327 328 328 327 327 327 327 328 328
310 310 310 309 307 307 307 307 307 307 308 307 307 307 306 307 307 306 306 306 305 306 306 305 305 305 305 306 305 305 305 304 304 304 304 304 304 304 304 304 304 304 304 304 304 303 302 301 300 300 299 298 297 296 297 298 300 303 306 310 313 315 317 318 319 322 325 327 327 326 326 326 326 326 326 327 327 328 328 328 327 326 326 327 327
309 309 309 307 306 306 306 307 307 307 307 307 307 306 305 306 306 306 305 305 305 305 305 304 304 304 304 305 305 305 304 304 304 304 304 303 303 303 303 303 302 302 303 304 304 303 302 301 300 300 299 298 297 296 296 298 301 303 306 309 312 314 316 317 318 320 323 324 325 326 325 325 325 326 326 327 327 327 327 328 327 326 326 326 327
308 308 308 307 305 306 306 306 306 306 306 306 306 305 305 305 305 305 305 304 304 304 304 304 304 304 303 304 304 304 303 303 304 304 304 303 303 303 303 302 302 301 301 302 303 302 302 301 300 299 299 297 296 296 296 298 300 303 306 308 310 312 314 315 317 319 322 324 325 325 325 325 325 325 326 326 326 327 327 327 327 327 327 327 326
308 307 307 306 305 306 306 306 306 306 306 306 305 305 305 304 304 304 304 304 304 304 304 303 303 303 303 303 303 303 302 302 302 303 303 302 303 303 303 302 301 301 301 301 301 301 301 300 299 299 298 297 296 296 296 297 299 302 304 306 307 309 312 314 314 316 320 322 323 324 325 325 325 325 326 326 326 326 326 327 327 328 328 327 326
307 306 305 305 305 306 306 305 306 306 306 305 305 305 304 304 303 303 303 303 304 304 303 303 303 303 302 302 302 302 302 301 300 301 301 301 301 302 302 302 301 300 300 300 300 300 300 299 299 298 298 297 297 296 297 296 297 300 302 303 304 306 308 310 311 312 313 315 318 321 323 324 324 324 325 326 326 326 326 326 327 327 327 327 327
307 306 304 305 305 305 305 305 306 306 305 305 304 304 304 303 303 303 303 303 303 303 303 302 302 302 302 302 301 302 301 300 300 299 300 299 299 300 301 302 301 300 300 300 300 300 300 299 298 298 297 297 296 296 297 297 297 297 299 300 301 302 304 305 306 307 307 308 311 314 318 319 320 322 323 325 326 326 326 326 326 326 326 326 327
305 305 304 305 305 305 305 305 304 305 305 304 304 303 303 303 303 303 302 302 303 303 303 302 302 302 301 301 301 301 301 300 299 299 298 298 299 299 299 300 301 300 300 300 300 300 299 299 298 298 297 297 296 296 297 297 296 296 297 297 298 299 299 300 301 302 303 304 305 307 311 313 315 317 321 322 323 324 325 326 326 326 325 325 326
304 304 304 304 304 304 304 304 304 304 304 304 303 303 303 302 302 302 302 302 302 302 302 302 301 301 301 300 300 300 300 300 299 299 298 298 298 298 298 299 300 300 299 299 300 300 299 299 298 298 297 297 296 296 296 296 296 296 296 296 296 297 297 297 298 298 300 301 302 302 305 308 311 314 317 319 321 323 323 324 325 325 324 325 325
304 304 304 304 304 304 304 304 304 303 303 303 303 302 302 302 302 301 302 301 301 302 302 302 301 301 300 300 300 300 300 300 299 299 298 298 297 297 297 298 299 299 298 298 299 300 299 299 298 298 297 297 296 296 296 296 296 296 296 296 296 296 296 296 297 297 297 299 300 300 302 304 307 309 312 316 320 321 322 323 324 324 323 323 324
304 304 304 303 303 303 303 303 303 303 303 303 302 302 302 302 301 301 301 301 301 301 301 301 301 301 300 300 300 299 299 299 299 299 298 298 297 297 297 297 297 297 296 296 298 299 299 299 298 298 298 297 297 297 296 296 296 296 296 296 296 296 296 296 296 296 296 297 298 300 301 302 304 307 310 313 316 319 321 322 324 324 322 322 323
303 303 303 303 303 303 303 303 303 303 303 302 302 301 301 301 301 301 301 301 301 301 301 301 301 301 301 300 300 299 299 299 299 299 298 298 297 297 297 297 297 297 296 296 297 299 299 298 298 298 297 297 297 297 296 296 296 296 296 296 296 296 295 296 295 295 295 296 297 298 300 301 303 305 308 311 313 316 319 321 323 323 323 322 322
303 303 303 303 303 303 303 303 303 303 302 302 302 301 301 301 301 301 301 300 300 300 301 300 300 301 301 300 300 299 299 299 299 299 299 298 297 297 297 297 296 296 296 295 297 298 298 296 295 296 296 296 296 296 296 296 296 296 295 296 296 296 296 295 295 295 294 294 295 296 297 299 301 303 305 308 311 314 317 320 321 322 322 322 320
303 303 302 303 303 303 303 302 302 302 302 302 301 301 301 301 301 301 300 300 300 300 300 300 300 300 300 301 300 299 299 299 299 299 299 298 297 297 297 297 296 296 295 295 295 296 297 295 294 294 294 294 294 295 295 296 297 296 296 295 295 296 296 296 295 294 294 294 294 294 295 298 300 301 302 304 307 310 314 316 318 321 322 320 317
303 303 302 302 302 302 302 302 302 302 302 301 301 301 300 300 301 300 300 300 300 300 300 300 300 299 300 300 300 300 299 299 299 299 299 298 297 296 297 297 296 296 295 295 295 295 296 295 294 294 293 293 293 294 295 296 297 296 296 296 295 295 296 296 295 294 294 294 294 294 295 297 299 300 301 302 303 306 308 310 313 317 318 316 315
302 302 302 302 302 302 301 301 302 302 301 301 301 301 300 300 300 300 300 300 300 299 299 300 300 299 299 300 300 300 300 299 299 299 299 298 297 296 296 296 296 295 295 295 294 294 295 295 294 293 293 293 293 293 294 295 297 297 296 296 296 295 295 295 295 295 294 295 295 295 295 296 298 298 299 301 301 302 303 304 308 312 314 313 313
302 302 302 301 301 300 300 300 301 301 301 301 301 301 301 300 300 300 300 300 300 299 299 299 299 299 299 299 300 300 300 300 299 299 299 299 298 297 296 296 296 295 294 294 294 294 294 294 294 293 293 293 293 293 294 295 296 297 296 296 296 296 295 295 295 295 295 295 296 296 296 296 296 297 298 299 299 299 300 301 302 306 309 309 309
301 301 300 300 300 300 300 300 300 300 301 301 301 301 301 301 300 300 300 300 300 299 299 299 299 299 299 299 299 300 300 300 300 299 299 299 298 297 296 296 296 295 294 294 294 293 293 293 293 293 293 293 293 293 294 294 295 296 296 296 296 296 295 295 295 295 295 295 295 296 296 296 296 295 296 296 296 297 299 300 299 300 302 302 302
300 300 300 300 300 300 299 299 299 300 300 301 301 301 301 300 300 300 300 300 300 299 299 299 299 299 300 299 299 299 300 300 300 300 299 299 298 297 297 296 296 295 294 294 294 293 293 293 293 293 293 292 293 293 293 294 295 296 296 296 296 296 295 295 295 294 294 294 294 295 295 295 296 296 295 295 295 296 297 298 297 296 297 298 298
300 300 300 300 300 300 299 299 299 299 300 301 301 301 301 300 300 300 300 300 300 300 299 299 299 299 299 299 299 299 300 300 300 300 300 299 298 298 297 296 296 295 295 294 294 293 293 293 293 293 292 292 292 293 294 294 294 295 296 296 297 296 296 295 294 294 294 294 294 294 294 295 295 295 295 294 295 295 295 295 296 296 295 296 297
300 300 300 300 300 300 300 300 300 300 300 300 301 301 301 300 300 300 300 300 299 299 299 299 299 299 300 299 299 299 299 299 299 299 299 299 298 298 297 297 296 296 295 295 294 294 293 293 293 293 292 292 292 293 294 295 295 296 296 296 297 297 296 295 294 294 294 294 294 293 293 292 292 292 292 292 292 293 293 294 295 295 295 295 296
300 300 300 300 300 300 301 301 300 300 300 301 301 301 301 300 300 300 300 300 300 299 299 299 299 299 300 300 299 299 299 298 298 298 298 298 298 298 298 297 297 296 296 295 295 294 293 293 293 293 292 292 292 293 294 295 296 296 297 297 297 297 296 295 295 294 294 294 293 292 291 291 291 291 291 291 291 291 291 292 292 293 294 294 295
300 300 300 299 300 301 301 301 300 300 300 301 301 301 301 300 300 300 300 300 300 300 300 299 299 299 300 300 299 299 299 298 298 298 298 298 298 298 298 298 297 297 296 296 295 294 293 293 293 293 293 293 292 293 293 295 296 296 297 297 297 296 296 295 295 295 294 294 293 292 291 291 291 290 290 290 291 291 291 291 291 291 292 292 293
Wind_Speed
13 20 22 22 22 23 23 23 23 22 20 19 18 16 15 13 12 10 7 4 3 3 4 4 5 6 6 6 7 5 6 8 8 10 12 12 12 13 14 15 15 16 17 18 18 20 20 20 20 19 19 20 21 21 21 21 22 22 22 21 21 21 21 21 20 18 15 14 13 15 18 17 16 16 17 18 15 16 13 11 20 26 21 20 19
12 16 17 19 20 22 23 23 23 22 21 21 19 18 16 15 14 12 10 8 7 6 4 2 1 2 3 5 6 6 6 8 9 10 11 12 13 13 13 13 13 15 16 18 18 19 20 20 20 19 19 20 22 23 22 21 22 22 22 21 21 21 22 22 21 18 14 14 11 7 10 14 16 15 16 17 16 15 13 13 21 24 21 21 20
10 11 13 15 17 19 21 22 21 20 20 20 18 16 16 16 16 14 13 10 9 8 7 5 3 2 3 4 5 4 5 7 8 9 11 13 13 13 13 13 13 14 15 16 16 16 17 17 18 18 19 20 22 23 23 23 23 23 22 21 20 20 22 22 22 21 19 15 9 4 3 5 9 13 16 18 18 16 15 15 20 22 20 20 19
8 8 9 12 14 17 19 19 19 19 20 19 18 17 15 16 16 15 15 14 12 11 11 9 5 3 4 5 6 5 4 5 6 6 9 12 11 12 13 13 13 14 14 14 14 15 16 17 18 19 19 20 21 22 22 22 23 24 23 22 20 18 20 22 23 25 23 16 7 3 2 2 4 8 12 19 21 19 17 17 18 18 19 20 19
8 8 8 10 12 16 17 17 17 19 19 18 18 17 16 15 15 14 15 15 13 12 13 13 10 8 8 8 7 7 7 6 6 4 4 6 6 8 10 11 11 11 12 13 14 17 18 18 19 19 20 21 21 20 19 20 22 23 23 23 22 21 20 22 23 25 27 25 16 6 3 2 3 5 7 13 21 22 20 19 18 18 18 19 20
7 7 7 9 11 14 16 16 16 17 17 17 16 16 16 17 15 14 15 15 13 12 13 14 13 13 15 13 10 10 11 10 7 7 7 9 10 10 9 10 11 11 11 11 13 17 19 19 18 19 20 20 19 19 21 22 22 22 23 23 25 25 25 24 23 25 27 30 28 19 12 5 2 6 5 4 13 20 20 19 19 18 18 19 20
6 6 7 8 11 13 14 14 16 16 16 16 16 16 17 18 17 15 14 14 13 13 13 14 15 15 16 16 14 13 12 12 11 12 13 14 14 13 11 11 12 11 10 10 11 13 16 18 18 19 18 17 18 20 22 23 23 23 23 24 26 27 28 25 24 25 24 27 30 28 23 14 7 6 5 2 4 9 14 17 18 18 18 19 20
5 5 6 9 12 12 11 14 15 15 15 16 16 17 16 17 17 16 16 15 14 13 13 15 16 16 16 17 17 16 15 16 15 15 15 16 15 14 12 12 12 12 12 12 12 13 15 16 16 17 18 17 18 20 20 20 22 23 24 24 25 26 27 26 25 24 23 24 27 28 27 21 15 11 7 5 3 3 7 11 15 18 19 20 20
6 5 5 9 12 12 12 14 15 15 15 15 15 16 16 16 17 17 16 16 15 15 14 14 15 16 17 18 19 19 18 18 18 17 18 18 17 16 15 15 14 14 14 14 14 15 15 17 16 15 16 17 17 19 18 18 20 23 25 25 24 23 25 26 26 25 26 26 24 25 24 21 19 15 12 10 5 4 4 4 9 13 15 20 22
6 6 7 11 12 12 13 14 14 14 14 15 14 14 15 15 16 17 15 15 16 16 15 14 16 17 18 19 20 20 20 20 20 20 20 20 20 19 18 17 16 16 16 15 15 15 14 16 17 16 16 17 18 20 20 19 20 23 24 24 24 23 24 26 27 27 28 29 26 24 22 18 15 13 13 13 8 5 4 5 9 12 11 16 22
5 6 8 11 12 12 13 14 14 15 15 15 14 14 14 14 14 15 14 14 15 17 17 16 16 17 19 19 20 20 21 21 22 22 21 22 22 21 20 19 18 17 17 17 17 17 16 15 16 17 17 18 18 19 21 22 22 22 23 23 23 24 25 24 26 28 27 27 27 25 23 21 19 16 16 16 10 6 5 4 9 14 12 13 20
5 5 7 10 11 12 13 14 14 15 14 14 14 12 12 12 13 13 14 15 16 15 16 17 17 18 19 19 19 20 20 21 21 20 20 21 22 22 22 21 21 20 20 20 19 20 20 19 18 18 19 19 19 20 22 22 21 20 21 22 22 24 26 23 24 27 26 25 26 27 26 27 27 25 23 22 18 15 10 5 7 12 10 10 17
6 5 6 6 8 11 13 14 13 13 13 12 12 11 10 10 12 14 16 16 15 15 16 16 16 18 19 19 19 19 19 20 21 20 21 21 21 22 23 23 24 24 24 24 23 22 22 22 21 21 21 21 19 20 22 22 21 20 20 22 22 22 24 24 25 28 28 27 27 27 27 27 29 28 26 25 23 20 14 8 9 12 9 8 13
6 5 5 5 8 12 13 12 11 11 11 10 11 10 10 11 11 15 17 15 14 15 16 16 15 17 19 18 18 19 19 20 20 21 22 23 23 23 23 24 24 25 25 26 25 23 23 23 22 22 22 21 19 21 22 24 25 23 23 25 23 22 23 25 27 29 29 28 27 26 27 28 29 28 27 26 24 21 18 13 10 9 9 8 10
6 5 5 6 10 12 11 9 8 8 9 9 11 10 11 13 14 16 17 16 13 14 17 17 17 18 18 17 17 18 19 19 20 21 21 22 23 23 23 23 23 24 24 24 24 24 25 24 23 22 22 22 22 22 23 24 25 25 25 26 25 24 25 26 28 28 27 27 27 26 27 28 28 28 27 27 27 25 24 21 15 8 5 6 7
7 5 5 6 9 11 10 8 7 8 9 10 10 9 10 14 17 17 16 17 15 14 17 19 19 20 19 18 17 18 19 19 19 19 19 20 22 22 22 22 22 23 23 23 24 24 25 26 25 24 23 24 24 23 23 24 26 26 26 25 26 26 24 25 26 26 26 25 25 25 25 26 28 30 29 29 29 29 28 27 23 15 8 4 4
6 5 4 5 8 10 9 7 7 8 10 10 9 10 12 14 17 17 16 19 18 15 18 21 20 21 21 20 19 19 18 19 18 18 18 19 21 22 22 21 21 23 24 24 24 24 25 25 25 24 24 24 24 24 24 25 26 27 27 26 27 26 25 25 25 25 24 22 23 24 24 25 28 29 30 30 31 31 29 28 28 25 17 8 4
7 6 5 7 8 7 7 7 7 8 10 10 11 13 16 17 18 18 16 19 20 18 20 22 22 22 22 21 20 19 19 19 18 18 19 19 20 23 23 21 21 22 23 24 25 25 25 24 24 26 27 26 26 26 25 25 26 27 28 27 26 24 24 25 26 25 24 21 22 23 24 26 28 28 29 30 31 31 29 29 28 28 26 16 8
6 5 5 6 7 8 9 10 11 12 14 15 15 15 17 18 18 17 17 19 21 21 22 23 22 22 21 21 20 20 20 20 19 19 20 19 20 24 24 21 20 21 21 23 24 25 26 27 26 28 29 28 26 25 25 25 25 26 26 26 25 24 23 23 24 24 22 21 21 22 23 26 28 29 29 29 30 30 30 29 27 27 28 23 17
4 4 4 7 9 12 13 13 15 17 18 19 19 18 19 19 18 18 19 21 22 23 24 23 22 21 21 21 20 21 22 21 20 20 21 20 20 24 25 21 20 21 21 22 23 25 28 29 29 30 30 29 27 25 24 23 23 23 24 24 25 23 23 23 23 23 21 20 20 21 22 25 28 29 29 28 28 28 28 29 27 27 27 25 23
3 4 5 8 11 14 15 15 15 17 18 18 19 19 18 18 19 19 21 22 23 24 23 22 22 21 22 22 21 22 22 22 22 22 21 22 23 25 26 23 22 22 22 22 23 25 27 29 30 32 32 29 26 24 23 21 20 22 22 22 22 20 20 18 17 18 18 18 18 20 22 24 25 26 27 27 26 26 27 27 26 26 28 27 25
3 4 6 9 12 13 14 15 16 16 17 18 18 18 17 17 19 20 22 22 23 23 22 22 23 23 23 22 22 22 23 23 24 24 23 24 24 26 28 27 25 24 23 24 24 24 26 27 29 33 35 33 30 27 25 22 20 20 21 20 18 16 16 14 13 14 16 16 16 18 21 23 23 24 26 26 25 25 25 25 27 26 26 28 28
4 5 8 11 12 13 13 14 16 17 17 17 17 18 18 18 18 20 22 22 23 23 22 23 24 25 24 24 24 24 24 24 26 25 25 25 25 26 29 30 29 26 25 24 24 24 26 26 26 33 38 37 35 33 29 27 24 21 19 18 16 13 13 13 12 12 13 14 14 15 18 22 22 22 24 25 25 24 23 25 28 29 28 29 30
6 7 9 13 14 14 13 14 16 17 17 17 17 18 19 20 20 21 22 22 23 24 23 24 25 25 26 26 27 27 26 26 27 27 26 26 26 26 29 32 32 31 29 27 26 26 29 28 25 30 39 40 38 38 34 31 29 25 21 18 15 13 12 12 10 10 11 11 13 14 16 20 22 22 24 24 24 24 24 25 28 30 31 31 29
7 7 8 11 12 12 13 13 15 16 17 18 17 17 19 20 20 21 23 23 24 24 24 24 24 25 25 26 27 28 28 27 27 27 26 26 26 25 27 31 32 33 33 32 33 31 30 29 25 27 38 43 41 40 39 35 32 29 25 20 17 15 13 13 11 10 10 10 13 14 15 19 21 24 26 22 19 19 20 22 27 29 31 31 29
7 6 6 8 9 11 12 14 15 16 17 18 18 19 19 19 19 21 23 23 23 24 23 22 23 24 24 25 27 28 28 27 26 26 26 26 26 25 25 29 30 32 33 34 37 37 32 31 28 25 35 45 44 42 41 39 36 33 28 24 21 18 15 13 11 10 10 10 13 15 16 18 20 24 26 21 17 18 19 24 30 28 27 29 29
6 6 6 6 8 9 10 12 15 16 17 18 19 19 20 20 20 23 24 23 22 21 21 21 22 25 25 25 27 28 27 26 25 25 25 25 26 25 25 27 28 30 32 33 35 36 35 36 33 27 32 44 47 45 44 43 39 35 31 28 25 21 17 14 11 10 10 11 13 15 17 18 19 21 23 20 16 19 23 28 32 28 26 28 29
6 6 6 6 6 7 9 10 14 16 16 18 19 19 19 21 22 23 22 21 20 19 19 21 22 24 25 25 26 26 26 26 26 25 26 25 26 26 25 26 27 28 31 32 33 33 34 37 36 30 31 43 50 48 46 45 41 36 32 28 26 24 20 16 12 10 9 10 12 13 15 16 16 17 19 19 17 17 24 28 30 26 25 27 28
7 6 6 5 5 8 11 12 13 14 15 17 18 18 18 18 21 22 21 20 19 20 21 23 23 23 24 24 25 25 25 26 27 27 27 27 27 27 27 28 29 28 28 31 33 33 34 36 36 32 31 41 49 46 44 45 42 36 31 27 25 24 20 16 14 12 10 8 9 10 11 12 13 14 15 16 17 17 21 25 27 26 23 25 27
7 7 6 6 7 9 12 14 15 15 15 15 15 18 20 19 19 21 22 21 22 24 25 27 27 26 24 22 22 24 25 25 27 27 27 27 28 28 28 29 30 30 28 30 32 34 35 36 35 33 32 39 46 45 44 45 42 34 29 25 23 21 19 17 16 15 14 11 8 8 8 9 10 10 11 13 16 18 19 22 26 28 26 25 26
7 7 6 6 8 10 12 14 15 16 18 17 16 19 24 23 19 20 23 23 24 26 27 28 27 27 27 25 22 23 24 24 25 27 27 27 27 27 29 30 31 32 30 29 31 32 34 36 36 34 33 36 43 47 47 48 44 35 28 24 23 22 20 20 20 19 18 14 9 7 9 9 9 9 9 10 13 16 18 20 23 27 28 27 27
8 7 6 6 7 9 11 12 14 16 19 20 21 21 22 22 21 21 23 23 24 26 27 27 26 26 28 28 26 25 27 26 25 26 28 27 26 25 28 30 31 33 32 30 30 30 32 34 35 34 33 35 42 48 50 51 47 39 30 25 24 24 23 23 23 22 20 16 12 12 12 10 10 10 10 9 10 13 17 19 21 25 28 29 29
8 7 6 7 8 10 12 13 14 16 18 19 20 20 20 21 22 22 21 21 22 24 26 26 26 26 27 29 28 27 29 31 30 29 30 30 29 25 25 28 31 32 32 31 30 30 31 33 34 33 32 34 41 48 50 52 50 44 35 29 26 26 25 24 25 24 20 15 12 13 13 11 12 12 12 12 10 11 14 18 21 24 26 27 27
8 7 7 9 10 12 14 15 15 16 18 18 18 19 19 20 21 21 20 19 20 23 26 26 25 26 27 28 28 27 28 31 31 31 31 33 33 29 25 25 29 32 32 31 30 30 30 32 33 33 32 33 39 46 49 51 52 48 42 35 30 28 26 26 26 25 22 19 16 13 13 14 15 14 13 14 13 11 11 15 21 26 26 25 26
7 7 8 11 13 14 15 16 16 16 17 18 19 19 19 19 19 20 20 19 19 22 25 26 26 25 25 27 28 27 28 29 30 31 32 32 34 33 29 25 27 31 31 30 29 28 29 30 32 33 32 33 37 43 46 48 50 49 45 41 37 32 29 27 26 25 24 23 21 18 15 15 15 13 12 11 12 14 13 14 20 25 26 27 26
9 10 11 13 14 15 16 16 16 17 17 18 19 18 18 19 19 19 18 18 18 20 23 26 26 25 26 27 28 27 27 27 28 30 32 32 32 33 32 27 25 28 30 30 28 27 27 29 31 33 33 34 36 41 43 44 47 48 46 43 41 36 32 30 29 28 27 26 25 24 21 18 16 13 11 8 9 11 12 15 18 20 22 24 25
15 15 15 15 14 15 17 17 17 17 18 18 17 16 17 19 19 17 17 20 20 20 22 25 26 25 26 27 27 27 26 26 27 28 31 32 31 31 32 30 26 27 30 30 26 25 26 28 30 31 33 34 36 40 42 41 43 45 43 41 39 36 34 33 31 30 29 28 27 27 25 23 21 17 14 11 9 9 11 16 18 17 17 19 22
17 17 16 16 16 16 17 17 18 18 17 16 16 17 17 18 18 18 18 20 21 20 21 24 24 24 24 24 25 26 25 25 26 26 27 31 31 30 30 30 28 27 30 29 24 22 25 28 30 30 30 32 34 38 41 41 41 42 41 39 37 34 32 33 33 31 31 31 29 27 27 26 24 22 18 14 12 10 12 17 19 17 15 17 22
17 16 16 16 17 17 18 18 18 17 15 15 17 18 16 15 15 17 18 18 19 19 21 22 22 22 22 22 23 24 24 22 22 23 25 27 29 28 28 29 28 28 30 30 26 23 24 27 28 29 30 31 32 36 38 39 40 41 39 37 36 34 32 32 32 31 32 33 31 30 29 27 25 23 21 16 12 9 10 16 19 17 17 20 23
17 16 17 16 17 18 19 18 18 16 14 15 16 16 16 16 16 17 19 19 17 17 19 21 20 20 20 20 20 21 22 20 19 21 24 25 26 26 26 27 27 27 29 31 28 24 25 27 27 28 30 31 32 34 36 36 37 39 39 37 36 34 31 30 30 30 31 32 32 32 31 28 26 24 21 18 14 7 7 15 18 17 19 22 23
17 17 17 17 17 18 20 19 18 15 14 14 14 14 16 17 17 18 19 17 16 16 18 21 20 18 17 18 19 19 20 20 18 18 22 24 24 24 24 25 25 26 28 29 28 25 26 28 29 28 29 31 31 32 34 34 34 36 38 37 36 32 28 27 28 28 29 31 31 32 32 29 26 24 21 19 15 8 6 12 16 16 17 19 20
17 18 18 18 17 18 18 19 17 14 11 11 14 15 16 16 16 18 18 17 18 18 19 20 20 18 14 14 16 18 19 20 19 18 19 22 23 23 23 23 23 24 26 27 26 24 24 27 29 29 29 30 30 31 33 33 31 32 35 36 36 33 28 25 25 27 29 30 30 31 31 28 25 23 22 20 16 11 7 8 13 16 15 14 15
20 20 19 18 18 17 17 18 16 13 9 9 13 16 15 15 16 17 16 15 17 18 17 17 17 18 15 11 12 16 19 18 18 17 17 20 23 23 22 22 23 24 25 26 26 25 24 25 28 29 30 31 30 31 34 33 30 29 30 33 34 34 30 26 23 24 26 28 29 29 29 27 25 24 23 22 20 15 11 7 5 9 9 12 15
21 22 20 19 18 16 16 16 14 12 9 8 11 14 14 14 15 15 15 15 16 15 15 14 14 15 16 13 10 12 16 16 17 17 16 17 21 23 22 22 22 23 24 25 26 25 24 25 27 28 30 31 31 31 33 34 30 27 27 29 31 33 32 28 24 23 23 25 27 28 28 27 26 26 25 24 24 23 20 16 9 9 15 18 20
22 23 20 19 18 17 16 15 13 12 9 8 10 12 14 14 14 14 13 15 15 14 14 17 17 16 17 17 13 11 13 15 17 16 15 16 18 21 22 21 21 22 24 24 25 25 24 24 25 27 29 30 31 32 33 34 31 26 25 27 29 31 31 29 27 24 23 22 22 23 25 27 28 29 28 28 28 28 26 24 22 18 20 21 22
24 22 20 18 17 16 15 14 12 11 11 9 9 12 15 15 14 14 14 12 12 13 13 15 18 18 17 18 18 13 11 13 16 15 14 15 16 18 20 21 20 21 22 23 24 25 25 24 25 27 27 28 31 32 32 34 32 27 25 26 27 28 30 30 28 27 25 23 22 22 23 25 27 30 32 32 32 31 28 28 30 28 25 24 24
22 21 20 18 17 15 14 14 12 10 11 11 9 12 16 14 11 12 14 14 13 14 14 14 15 18 17 16 18 16 12 11 14 15 13 13 14 16 18 19 19 19 21 22 24 25 26 25 25 27 27 27 30 31 31 32 32 28 25 24 24 26 28 30 30 29 28 28 28 27 25 24 24 26 30 32 33 33 33 32 33 33 32 30 29
21 21 19 17 16 15 14 14 13 10 10 9 7 10 14 13 11 11 12 14 15 14 14 14 14 15 16 14 15 18 16 11 12 14 13 11 12 14 15 17 17 16 18 20 22 24 24 24 25 26 27 27 28 31 31 30 30 27 24 22 22 23 25 27 29 30 29 29 30 30 30 30 28 28 29 30 31 31 32 32 32 32 32 32 31
21 20 19 17 16 15 14 15 14 12 10 7 6 10 13 13 13 12 11 11 12 11 12 12 12 13 14 13 13 16 17 14 13 14 13 12 12 12 13 14 14 14 16 18 20 21 23 24 25 26 27 27 29 30 30 29 28 25 22 20 20 20 20 23 26 28 30 31 31 32 32 31 31 31 31 31 30 29 29 28 28 28 28 29 30
22 19 17 16 15 14 14 15 14 12 10 7 5 9 12 11 10 10 10 10 11 10 10 11 12 13 12 12 12 14 16 17 16 15 14 13 13 12 11 12 13 13 14 16 18 19 21 24 26 26 27 26 25 26 27 28 26 23 19 18 18 18 18 20 22 26 30 32 31 29 29 28 28 28 28 28 28 28 28 27 25 25 24 25 26
20 18 16 15 14 14 14 15 14 11 9 6 4 7 11 11 9 9 9 8 8 9 10 10 12 14 13 12 12 12 14 16 17 16 16 16 16 14 11 11 12 14 13 13 15 17 19 22 25 27 27 26 24 23 25 26 26 23 20 18 18 18 19 19 20 25 29 30 28 27 26 25 26 26 25 25 26 26 26 26 25 25 24 23 22
Wind_Direction
64 61 63 67 70 74 76 76 77 76 75 77 77 76 77 81 82 83 86 86 90 125 151 168 180 193 202 206 208 222 258 259 243 239 248 252 242 238 245 248 249 247 248 251 250 252 254 255 257 255 249 247 252 259 261 258 256 257 258 257 257 257 256 252 245 240 241 238 237 242 241 240 240 235 227 224 223 220 216 208 208 205 201 203 205
64 57 56 60 63 70 72 73 73 69 68 71 70 68 69 66 60 61 67 65 55 58 64 61 140 229 246 226 209 201 211 218 223 232 239 248 250 252 259 263 261 257 256 258 257 256 256 255 256 257 254 251 251 254 257 256 255 256 256 256 255 254 254 255 249 238 232 230 227 235 244 243 243 239 228 220 218 223 224 209 203 202 198 200 205
61 55 50 52 57 64 67 68 67 65 65 68 68 67 66 59 54 52 53 52 51 52 41 29 24 340 324 287 255 236 215 212 216 219 225 235 239 244 258 270 273 271 268 265 261 258 258 257 257 257 255 253 252 252 254 255 255 254 252 252 252 251 250 252 248 238 229 226 223 220 231 243 246 240 231 224 215 213 215 202 197 199 200 203 206
63 59 50 48 53 58 61 62 63 62 62 61 59 59 55 50 49 51 51 46 42 44 39 30 21 3 348 322 300 288 267 254 257 247 235 234 227 229 247 262 273 279 276 268 262 262 264 262 261 258 254 254 253 251 253 256 259 257 252 250 249 247 247 247 246 240 231 222 212 213 191 191 246 232 224 226 219 214 217 210 202 201 203 207 208
66 63 56 54 54 56 59 60 60 58 58 56 54 52 48 46 44 44 46 40 30 31 31 27 23 22 13 356 336 323 327 327 316 306 278 267 260 251 248 251 263 269 269 269 262 258 259 261 263 262 258 259 256 256 259 260 261 260 254 249 245 242 242 244 243 240 234 226 215 205 185 202 241 202 198 227 223 222 226 219 216 215 211 211 211
69 67 63 63 61 59 57 56 57 57 55 55 54 54 51 48 44 39 38 33 26 23 22 22 21 20 19 15 3 343 338 344 342 337 331 322 314 303 289 283 284 272 266 273 267 258 256 258 264 266 263 263 263 267 271 268 263 259 254 249 246 245 243 241 240 238 238 234 225 221 223 228 229 180 168 227 225 225 228 221 223 225 222 219 215
75 74 70 69 67 63 59 55 55 55 55 55 53 53 52 49 46 42 38 31 23 19 17 20 19 18 21 21 16 6 352 347 345 342 340 340 334 320 310 313 312 299 290 288 277 271 267 263 266 268 268 271 273 273 272 272 269 263 259 254 251 250 243 236 237 236 234 236 232 229 230 232 236 208 179 151 196 219 226 221 224 228 225 222 218
90 84 79 75 68 65 65 59 55 53 53 52 50 48 46 46 45 42 42 37 27 21 18 18 18 17 18 19 20 17 9 4 0 358 358 357 353 344 335 335 333 324 315 309 298 291 287 281 280 278 278 281 279 274 270 271 273 269 265 260 255 252 246 239 239 236 231 233 233 231 231 230 232 234 215 195 159 175 215 217 220 225 224 221 220
96 93 89 83 75 70 69 62 56 54 52 49 47 45 42 41 42 40 40 39 33 29 25 23 22 20 17 16 18 16 13 11 9 10 10 6 4 4 359 352 346 336 327 321 313 302 296 296 297 292 285 279 273 272 272 272 273 273 269 265 262 261 259 252 244 236 232 234 232 228 229 226 224 234 233 223 208 166 186 207 206 212 218 220 219
95 93 87 85 85 79 72 66 58 54 52 51 48 43 40 35 37 40 36 34 35 34 32 29 26 25 22 18 16 13 11 9 9 11 10 7 7 7 4 359 353 348 342 336 330 322 310 304 305 303 295 286 278 273 272 272 272 273 273 272 271 270 266 258 249 240 236 236 235 228 226 219 215 229 234 224 213 184 190 202 195 194 204 215 214
97 95 85 79 80 77 74 67 59 53 49 49 46 41 41 36 35 41 38 33 32 32 34 33 30 27 24 20 18 15 12 9 8 7 5 4 3 1 360 359 355 352 349 344 342 339 331 320 312 309 306 300 292 281 277 278 276 275 277 278 276 271 265 260 255 250 242 237 235 229 225 221 215 216 220 214 206 195 195 194 200 203 206 209 211
96 92 80 73 69 66 66 62 56 52 47 46 45 42 45 41 35 39 45 43 36 33 33 30 30 29 25 22 20 16 14 11 6 4 5 3 360 356 355 355 353 351 349 347 346 342 337 329 320 313 311 307 299 293 290 288 284 281 279 277 274 270 264 261 258 252 245 240 236 230 228 227 221 218 217 213 208 204 197 181 192 201 210 218 214
100 85 76 74 71 64 59 55 54 54 51 48 45 44 44 42 42 45 47 44 39 41 41 35 30 29 27 24 21 18 15 11 6 4 3 2 358 355 353 351 349 348 347 348 348 345 338 331 324 317 313 310 304 301 299 292 289 288 282 277 274 269 263 260 255 249 246 243 236 229 226 226 225 225 222 216 214 209 205 200 193 194 199 209 210
88 77 75 71 72 71 62 56 57 58 59 53 45 42 31 27 43 53 48 41 44 52 52 47 39 30 27 25 21 20 18 14 10 5 360 358 358 356 353 350 348 347 347 349 350 348 343 336 328 321 318 314 308 306 305 301 298 293 284 279 274 265 260 259 254 249 247 243 235 228 225 224 226 228 224 220 218 211 206 201 189 193 200 193 197
83 73 68 63 71 78 73 66 63 63 64 56 50 44 31 33 48 53 45 38 46 57 53 51 49 40 33 30 26 22 20 17 14 6 359 357 358 356 353 350 349 348 348 349 350 348 345 342 336 330 325 319 312 310 310 307 304 299 290 281 275 269 264 258 253 252 247 239 234 230 227 225 225 227 227 225 222 217 214 207 192 181 196 195 196
88 77 61 60 78 87 79 70 66 67 64 56 52 40 32 46 56 54 43 31 37 56 54 52 53 45 38 36 33 28 24 21 17 11 5 2 0 357 353 351 349 350 350 349 349 348 345 342 340 337 332 325 318 313 311 309 305 299 294 287 280 277 267 254 250 251 249 241 234 230 226 226 230 232 232 229 226 223 221 215 203 192 187 188 200
94 92 79 64 83 94 91 84 77 77 72 62 51 38 42 55 57 55 45 33 39 57 56 52 51 46 42 39 36 33 28 24 19 16 12 7 4 2 358 355 354 353 353 352 353 353 348 344 342 339 334 329 322 315 310 309 305 298 293 289 285 281 268 256 251 249 249 243 234 229 226 228 232 233 233 231 228 226 222 218 212 206 200 187 187
109 114 106 80 78 90 104 98 81 77 72 61 51 48 57 62 56 53 44 35 43 55 53 50 49 47 46 40 37 35 31 28 25 20 16 11 8 5 2 360 358 357 357 358 0 1 357 352 347 341 334 327 320 314 310 307 304 300 294 288 287 281 267 258 253 249 247 243 235 232 227 227 230 230 231 231 227 225 222 218 216 213 208 203 192
110 117 113 97 80 67 75 76 67 65 62 56 52 52 60 61 54 50 41 38 46 51 51 48 45 47 46 39 39 39 34 31 29 23 19 17 12 8 6 5 2 359 359 1 3 4 3 0 353 346 340 334 325 316 311 308 305 301 294 289 288 281 266 257 256 252 246 238 234 234 229 226 230 230 230 230 227 225 222 218 218 215 213 213 205
98 106 106 103 88 69 65 65 62 62 57 53 50 50 56 56 52 48 44 44 47 49 49 46 43 46 44 40 43 42 37 34 32 27 24 23 17 11 11 10 5 3 4 3 3 5 6 6 4 359 354 347 338 327 319 314 310 307 299 293 291 283 270 262 259 253 247 240 236 236 233 229 231 231 229 228 227 224 221 219 219 218 216 217 210
90 96 96 97 93 81 70 65 66 67 62 55 49 49 52 52 50 49 47 48 48 48 47 43 43 45 42 42 46 43 40 38 33 30 28 26 21 17 15 13 10 11 10 7 7 9 11 14 15 14 12 7 360 352 342 333 325 322 313 301 293 284 273 264 256 251 248 246 243 240 238 234 232 232 230 230 229 226 224 220 220 220 219 217 212
98 93 89 91 94 92 84 73 68 69 69 63 55 49 46 48 55 53 48 50 50 48 45 42 44 44 41 43 44 42 43 41 36 33 31 27 24 22 21 18 16 14 11 10 10 10 13 18 17 15 17 17 16 14 8 1 353 343 331 317 303 289 274 260 249 246 241 237 239 241 242 242 241 239 235 234 233 231 226 221 220 221 219 219 218
96 84 78 78 80 83 85 80 71 68 71 69 61 52 43 47 60 57 50 52 53 50 46 44 44 42 40 41 40 40 42 42 39 36 32 29 26 25 25 24 22 17 13 12 11 11 16 20 15 12 16 16 14 15 13 11 10 3 351 335 317 299 284 266 251 249 244 237 235 239 244 248 250 251 245 239 235 231 223 219 224 226 221 220 218
79 71 69 71 70 67 69 73 72 68 67 68 64 57 49 50 59 59 54 54 55 52 49 47 45 42 41 40 39 39 39 40 40 36 32 29 27 27 26 26 27 24 21 19 18 17 20 22 17 13 16 17 14 13 12 10 10 8 4 354 337 321 305 289 271 264 260 252 246 245 248 251 253 255 253 245 237 230 222 219 225 226 221 219 214
74 67 65 68 68 63 61 65 70 69 66 66 62 57 55 54 58 59 57 57 55 52 50 49 47 44 43 42 41 39 38 38 37 35 32 30 28 28 27 26 27 27 27 28 29 26 22 22 20 13 16 19 17 13 11 10 8 5 3 359 352 343 328 312 299 282 269 260 259 259 256 255 254 253 250 246 237 232 228 227 227 223 218 216 210
84 77 72 72 71 70 69 71 73 70 68 66 60 57 56 54 58 62 60 58 55 51 50 52 52 47 44 44 42 40 38 37 35 33 32 30 29 29 27 26 27 28 28 29 32 32 26 23 23 16 16 20 19 15 12 9 7 5 1 358 354 349 340 331 321 304 288 271 264 264 261 257 253 248 244 243 238 229 228 235 232 223 216 213 210
101 93 82 74 70 67 72 83 84 77 73 71 65 61 57 53 57 64 62 58 55 50 50 55 55 50 47 47 45 41 38 37 35 33 32 31 30 29 27 25 25 27 28 27 28 30 28 26 26 22 18 19 19 17 13 9 6 4 1 357 354 349 343 341 336 322 305 289 277 272 267 260 253 247 243 243 236 218 217 232 236 226 216 214 213
101 96 85 76 67 51 49 73 91 88 81 77 70 66 64 61 63 65 61 57 54 51 52 56 57 54 52 52 48 44 43 40 37 34 32 30 29 28 27 25 24 25 27 27 27 26 25 25 25 24 20 18 19 17 12 8 5 2 360 357 355 351 345 339 337 333 319 301 290 280 271 266 261 256 250 245 241 224 215 227 236 229 217 215 215
97 93 89 84 72 49 41 55 76 78 78 82 78 70 64 64 69 67 61 56 51 49 53 54 51 51 53 55 51 48 48 47 43 40 37 34 31 29 27 25 24 24 24 26 27 26 24 23 22 21 19 17 17 15 11 9 6 1 359 358 356 353 349 342 335 333 332 323 307 292 283 284 280 272 263 252 247 237 219 219 231 233 221 212 212
102 94 89 84 75 61 47 50 57 55 60 77 82 67 56 58 70 70 62 56 52 52 54 52 47 44 44 47 49 48 49 48 46 43 40 38 36 34 32 29 26 24 22 23 25 25 25 23 20 20 19 16 15 12 11 12 11 6 2 1 359 357 356 352 343 333 331 332 330 319 307 300 291 283 277 259 246 241 231 227 236 238 228 215 209
109 101 93 83 76 68 55 50 53 52 56 65 71 64 59 59 65 68 64 59 57 57 56 51 48 44 39 39 41 42 43 44 43 41 39 37 37 37 37 35 31 28 25 24 24 25 24 22 21 21 19 16 14 12 12 14 14 12 9 7 8 6 4 2 354 343 336 330 321 321 320 310 296 285 282 269 250 243 238 236 239 239 232 223 213
108 102 95 86 79 77 68 57 54 57 60 63 66 66 62 58 59 65 66 63 61 61 59 54 49 46 41 39 40 41 41 39 37 35 34 32 33 37 39 37 34 32 30 27 25 25 24 21 21 21 20 17 13 13 14 15 16 16 15 15 16 13 8 5 359 350 343 331 316 317 323 321 310 298 292 283 261 247 240 234 236 240 237 229 221
104 101 99 93 84 83 80 68 61 64 66 67 69 68 65 62 61 63 64 64 67 68 64 58 52 48 44 41 41 44 44 41 38 35 33 29 28 32 39 38 35 33 32 30 28 27 25 23 22 22 21 17 14 14 15 15 16 18 20 21 22 17 11 9 7 4 2 353 336 327 328 328 324 317 307 295 278 257 243 232 228 234 238 233 225
103 102 100 94 85 81 82 74 67 69 71 71 72 71 69 68 66 64 60 60 69 73 68 62 56 50 47 44 43 46 47 45 42 39 35 31 28 28 33 38 37 33 32 31 29 27 27 26 25 24 22 19 16 15 15 15 16 19 22 23 24 21 15 14 16 16 15 13 3 349 337 329 326 327 322 309 291 273 252 231 216 213 219 225 222
104 106 103 96 87 81 81 77 71 74 77 75 73 72 71 70 69 69 63 59 69 78 74 67 61 55 50 46 45 48 49 47 46 43 39 35 31 28 27 31 36 36 33 31 29 27 26 26 25 23 21 18 16 15 16 16 15 17 21 23 24 23 17 14 15 14 12 13 9 1 351 336 329 329 328 313 290 277 263 240 218 207 206 212 216
119 114 106 100 94 90 88 84 77 75 78 79 78 75 73 70 69 69 65 60 67 80 78 70 65 60 54 50 48 49 50 48 47 46 42 37 33 30 26 25 32 36 33 30 29 27 24 23 23 22 21 18 17 17 18 18 17 17 19 20 22 22 17 13 13 11 12 14 10 5 359 348 340 333 321 302 282 269 252 238 229 217 208 209 212
121 114 106 99 98 99 99 95 86 76 74 78 81 78 75 73 67 64 65 60 61 75 81 74 68 64 58 54 52 51 50 48 48 49 46 40 35 32 28 26 28 31 29 25 26 28 25 21 21 21 21 19 18 19 20 20 19 18 19 19 19 19 16 15 14 11 13 15 13 10 6 359 353 346 330 311 289 259 232 231 232 221 208 209 213
120 118 113 106 101 99 99 98 94 86 79 76 75 74 75 75 68 64 68 67 63 72 81 76 71 68 63 59 56 53 51 50 51 52 48 43 39 35 32 31 30 29 25 21 22 28 26 22 20 20 19 18 17 18 20 22 21 20 20 19 18 16 15 15 14 12 14 16 15 14 13 9 2 354 344 328 304 274 243 233 230 217 201 200 209
118 117 116 114 109 102 96 93 90 87 84 78 77 76 72 72 73 68 66 66 66 73 81 78 72 72 69 63 58 53 50 51 55 55 48 43 42 40 37 36 34 31 25 21 22 27 27 22 19 18 16 14 12 13 17 21 22 21 20 20 19 17 14 13 12 12 13 16 16 16 16 14 8 358 349 341 326 299 253 232 226 218 208 202 205
127 127 120 116 113 107 101 95 88 85 84 81 83 81 69 63 69 69 65 61 58 67 80 80 74 74 71 62 57 54 49 48 57 58 50 45 44 42 40 39 38 34 29 27 28 30 28 22 17 15 14 12 9 8 12 19 22 22 21 20 21 20 16 12 11 11 12 14 16 17 17 15 10 2 353 345 339 323 247 232 230 225 220 216 208
145 137 121 113 110 107 105 101 94 91 89 83 82 81 74 69 67 68 68 59 46 58 81 81 73 72 70 62 58 58 53 50 55 59 52 46 44 43 41 40 39 36 34 33 33 32 27 21 18 15 13 11 9 8 10 16 21 23 22 21 21 21 18 14 13 14 14 14 14 16 19 18 13 9 3 354 345 331 264 237 231 227 229 226 211
140 128 119 114 110 106 104 103 98 93 89 85 82 78 75 74 71 70 72 60 45 57 80 81 68 64 68 67 62 60 58 57 56 56 51 46 46 47 45 42 40 37 35 33 32 29 26 22 19 17 13 10 10 9 10 14 19 22 24 23 21 19 19 17 16 16 16 17 17 18 21 22 20 17 15 12 3 348 318 269 244 235 233 225 200
128 123 119 113 106 101 101 102 100 96 87 80 85 84 76 73 72 70 71 66 56 58 70 74 65 58 60 69 67 61 62 60 54 53 51 46 46 47 47 45 43 39 36 33 30 27 25 20 17 16 14 10 9 9 11 13 16 20 23 25 22 18 17 18 18 16 16 19 22 24 25 27 28 28 28 27 24 22 19 359 276 228 201 183 172
128 125 119 114 110 105 102 100 100 101 88 67 80 89 82 76 77 73 68 71 67 58 54 56 57 55 55 59 64 67 65 56 49 52 53 46 44 46 48 48 45 42 39 35 31 27 24 19 14 12 12 10 8 9 10 11 13 17 21 24 23 20 18 17 19 19 19 22 26 30 31 32 34 36 38 39 38 38 40 44 64 130 143 144 150
121 120 118 118 116 111 109 108 106 105 94 69 71 83 81 76 79 79 74 73 71 61 47 41 41 45 50 47 47 63 67 51 45 52 53 44 42 44 46 48 48 46 43 38 33 29 24 18 13 10 9 9 8 8 9 10 11 15 20 23 23 21 20 21 22 23 23 23 27 31 34 37 39 41 43 46 46 45 47 49 59 88 114 121 126
115 116 116 116 113 111 111 110 109 111 105 83 65 74 80 74 69 70 69 71 76 74 59 42 35 38 45 41 37 48 62 48 40 49 53 42 39 42 46 48 48 49 47 42 36 31 25 19 15 11 9 9 11 10 9 8 9 12 17 21 22 22 22 24 25 27 29 29 29 32 35 39 42 44 46 47 48 51 54 54 54 62 78 89 94
123 124 125 122 118 116 113 107 102 102 103 94 77 78 83 77 66 65 59 56 69 78 71 57 43 37 41 40 31 31 42 42 34 40 48 45 38 39 44 47 47 48 48 44 38 33 28 20 15 11 9 10 12 12 10 8 8 9 12 16 20 21 22 24 26 28 32 35 35 36 37 38 42 45 48 49 50 53 56 58 57 56 63 72 77
126 127 126 123 118 116 115 113 107 98 97 99 89 84 87 86 87 84 65 52 59 64 59 57 49 37 40 46 32 22 26 36 32 31 37 41 38 37 42 46 46 44 45 44 40 36 31 25 18 13 10 10 12 14 12 9 7 8 7 11 18 20 20 24 27 29 31 35 37 38 38 38 38 40 43 45 48 50 53 57 60 60 62 69 77
115 116 118 118 118 118 117 114 111 106 104 103 82 77 86 93 93 89 80 68 64 53 41 42 39 31 38 51 40 21 22 35 40 36 35 33 32 35 39 42 42 41 42 43 40 36 33 30 27 22 16 12 11 12 13 11 9 7 5 10 19 21 21 25 28 29 31 34 36 37 38 37 36 37 38 40 42 46 49 53 59 63 64 68 74
110 112 115 116 117 119 117 113 111 110 112 111 82 74 85 93 88 80 81 85 78 64 51 41 30 25 34 48 44 30 27 33 37 39 39 33 28 28 30 33 35 35 37 40 38 34 32 31 30 29 25 20 15 10 10 12 12 10 11 19 26 27 26 26 27 28 32 35 36 36 36 36 36 36 37 38 40 43 46 48 53 60 66 69 71
121 122 122 122 121 119 116 115 114 115 118 114 73 66 84 93 85 70 69 74 76 72 65 48 29 27 37 46 44 40 38 35 32 35 39 36 30 25 22 26 30 28 29 33 34 32 33 32 29 27 25 23 17 9 7 11 14 16 21 28 32 32 30 29 28 31 35 38 38 36 35 37 39 40 39 40 43 44 45 47 49 54 60 65 70